^^

..:: Storico WU ::..




Lo storico viene creato da WUnderground con i dati che la stazione Meteomincio invia al loro server. L' aggiornamento viene fatto ogni 5 minuti circa, tuttavia possono esserci intervalli pił ampi a causa di errori, interruzioni di servizio o problemi nell' invio tramite FTP.


Storico stazione MeteoMincio
Giorno Sommario per Marzo 04, 2022 Unità:  Inglese    Metrico   Entrambi
Giorno Settimana Mese Anno
  Max: Min: Media:
Temperatura: 55.4 °F 39.2 °F 46.9 °F
Dew Point: 41 °F 26.6 °F 33.8 °F
Umidità: 89% 37% 63%
Velocità vento: 16.2mph 0mph 7.1mph
Raffica: 21.7mph - -
Direzione- - East
Pressione: 30 in 29.9 in -
Precipitazioni: 0 in    
 
 
Tabulato Dati per Marzo 04, 2022
Ora Temperatura Dew Point Pressione Direzione Velocità vento Raffica Umidità Intensità pioggia (oraria) Info solare Situazione
00:04 41 °F 35.6 °F 29.9 in ENE 6.2 mph 8.1 mph 80% 0 in 0.00 W/m2 unknown
00:09 41 °F 35.6 °F 29.9 in East 6.2 mph 6.8 mph 80% 0 in 0.00 W/m2 unknown
00:14 41 °F 35.6 °F 29.9 in East 4.3 mph 6.8 mph 81% 0 in 0.00 W/m2 unknown
00:19 41 °F 35.6 °F 29.9 in ESE 3.7 mph 5 mph 81% 0 in 0.00 W/m2 unknown
00:24 41 °F 35.6 °F 29.9 in East 5 mph 6.8 mph 81% 0 in 0.00 W/m2 unknown
00:29 41 °F 35.6 °F 29.9 in East 5.6 mph 6.8 mph 81% 0 in 0.00 W/m2 unknown
00:34 41 °F 35.6 °F 29.9 in ENE 5 mph 6.8 mph 81% 0 in 0.00 W/m2 unknown
00:39 41 °F 35.6 °F 29.9 in ENE 5 mph 6.2 mph 81% 0 in 0.00 W/m2 unknown
00:44 41 °F 35.6 °F 29.9 in ENE 4.3 mph 6.2 mph 81% 0 in 0.00 W/m2 unknown
00:49 41 °F 35.6 °F 29.9 in ENE 4.3 mph 5 mph 81% 0 in 0.00 W/m2 unknown
00:54 41 °F 35.6 °F 29.9 in ENE 3.7 mph 5 mph 81% 0 in 0.00 W/m2 unknown
00:59 41 °F 35.6 °F 29.9 in ENE 4.3 mph 6.8 mph 81% 0 in 0.00 W/m2 unknown
01:04 41 °F 35.6 °F 29.9 in ENE 5 mph 6.8 mph 81% 0 in 0.00 W/m2 unknown
01:09 41 °F 35.6 °F 29.9 in ENE 6.2 mph 9.3 mph 81% 0 in 0.00 W/m2 unknown
01:14 41 °F 35.6 °F 29.9 in ENE 8.1 mph 11.8 mph 81% 0 in 0.00 W/m2 unknown
01:19 41 °F 35.6 °F 29.9 in ENE 6.8 mph 11.8 mph 81% 0 in 0.00 W/m2 unknown
01:24 41 °F 35.6 °F 29.9 in ENE 6.2 mph 8.7 mph 81% 0 in 0.00 W/m2 unknown
01:29 41 °F 35.6 °F 29.9 in ENE 5 mph 6.8 mph 82% 0 in 0.00 W/m2 unknown
01:34 41 °F 35.6 °F 29.9 in ENE 4.3 mph 6.2 mph 82% 0 in 0.00 W/m2 unknown
01:39 41 °F 35.6 °F 29.9 in ENE 4.3 mph 6.2 mph 82% 0 in 0.00 W/m2 unknown
01:44 41 °F 35.6 °F 29.9 in ENE 3.7 mph 6.2 mph 82% 0 in 0.00 W/m2 unknown
01:49 41 °F 35.6 °F 29.9 in East 3.1 mph 5 mph 82% 0 in 0.00 W/m2 unknown
01:54 41 °F 35.6 °F 29.9 in ENE 5 mph 6.8 mph 82% 0 in 0.00 W/m2 unknown
01:59 41 °F 37.4 °F 29.9 in East 4.3 mph 6.8 mph 82% 0 in 0.00 W/m2 unknown
02:04 41 °F 37.4 °F 29.9 in ENE 5 mph 8.1 mph 82% 0 in 0.00 W/m2 unknown
02:09 42.8 °F 37.4 °F 29.9 in ENE 5 mph 8.1 mph 82% 0 in 0.00 W/m2 unknown
02:14 42.8 °F 37.4 °F 29.9 in ENE 5 mph 6.8 mph 82% 0 in 0.00 W/m2 unknown
02:19 42.8 °F 37.4 °F 29.9 in ENE 5.6 mph 8.1 mph 82% 0 in 0.00 W/m2 unknown
02:24 42.8 °F 37.4 °F 29.9 in ENE 5.6 mph 8.1 mph 81% 0 in 0.00 W/m2 unknown
02:29 42.8 °F 37.4 °F 29.9 in ENE 6.8 mph 9.3 mph 81% 0 in 0.00 W/m2 unknown
02:34 42.8 °F 37.4 °F 29.9 in ENE 6.8 mph 8.7 mph 80% 0 in 0.00 W/m2 unknown
02:39 42.8 °F 37.4 °F 29.9 in ENE 5.6 mph 8.1 mph 79% 0 in 0.00 W/m2 unknown
02:44 44.6 °F 37.4 °F 29.9 in ENE 6.2 mph 8.1 mph 79% 0 in 0.00 W/m2 unknown
02:49 44.6 °F 37.4 °F 29.9 in ENE 5 mph 8.1 mph 79% 0 in 0.00 W/m2 unknown
02:54 44.6 °F 37.4 °F 29.9 in ENE 6.8 mph 9.3 mph 79% 0 in 0.00 W/m2 unknown
02:59 44.6 °F 37.4 °F 29.9 in ENE 6.2 mph 8.7 mph 78% 0 in 0.00 W/m2 unknown
03:04 44.6 °F 37.4 °F 29.9 in ENE 6.2 mph 9.3 mph 78% 0 in 0.00 W/m2 unknown
03:09 44.6 °F 37.4 °F 29.9 in ENE 6.2 mph 8.7 mph 77% 0 in 0.00 W/m2 unknown
03:14 44.6 °F 37.4 °F 29.9 in East 6.2 mph 8.1 mph 77% 0 in 0.00 W/m2 unknown
03:19 44.6 °F 37.4 °F 29.9 in East 7.5 mph 9.3 mph 77% 0 in 0.00 W/m2 unknown
03:24 44.6 °F 37.4 °F 29.9 in East 6.2 mph 8.7 mph 77% 0 in 0.00 W/m2 unknown
03:29 44.6 °F 37.4 °F 29.9 in ENE 6.2 mph 8.1 mph 76% 0 in 0.00 W/m2 unknown
03:34 44.6 °F 37.4 °F 29.9 in East 7.5 mph 10.6 mph 76% 0 in 0.00 W/m2 unknown
03:39 44.6 °F 37.4 °F 29.9 in ENE 8.7 mph 11.8 mph 77% 0 in 0.00 W/m2 unknown
03:44 44.6 °F 37.4 °F 29.9 in East 9.3 mph 13 mph 77% 0 in 0.00 W/m2 unknown
03:49 44.6 °F 37.4 °F 29.9 in East 9.3 mph 14.3 mph 78% 0 in 0.00 W/m2 unknown
03:54 44.6 °F 37.4 °F 29.9 in East 6.8 mph 14.3 mph 78% 0 in 0.00 W/m2 unknown
03:59 44.6 °F 37.4 °F 29.9 in East 8.1 mph 9.3 mph 78% 0 in 0.00 W/m2 unknown
04:04 44.6 °F 37.4 °F 29.9 in East 7.5 mph 9.9 mph 78% 0 in 0.00 W/m2 unknown
04:09 44.6 °F 37.4 °F 29.9 in ESE 6.8 mph 10.6 mph 79% 0 in 0.00 W/m2 unknown
04:14 44.6 °F 37.4 °F 29.9 in East 4.3 mph 9.9 mph 79% 0 in 0.00 W/m2 unknown
04:19 44.6 °F 37.4 °F 29.9 in ENE 5 mph 6.8 mph 79% 0 in 0.00 W/m2 unknown
04:24 44.6 °F 37.4 °F 29.9 in ENE 7.5 mph 10.6 mph 79% 0 in 0.00 W/m2 unknown
04:29 44.6 °F 37.4 °F 29.9 in East 6.2 mph 9.9 mph 79% 0 in 0.00 W/m2 unknown
04:34 44.6 °F 37.4 °F 29.9 in ENE 5.6 mph 8.1 mph 79% 0 in 0.00 W/m2 unknown
04:39 44.6 °F 37.4 °F 29.9 in ENE 5 mph 8.1 mph 79% 0 in 0.00 W/m2 unknown
04:44 44.6 °F 37.4 °F 29.9 in ENE 6.2 mph 8.1 mph 79% 0 in 0.00 W/m2 unknown
04:49 44.6 °F 37.4 °F 29.9 in ENE 6.2 mph 8.1 mph 79% 0 in 0.00 W/m2 unknown
04:54 44.6 °F 37.4 °F 29.9 in ENE 5 mph 8.1 mph 79% 0 in 0.00 W/m2 unknown
04:59 44.6 °F 37.4 °F 29.9 in East 5.6 mph 6.8 mph 79% 0 in 0.00 W/m2 unknown
05:04 44.6 °F 37.4 °F 29.9 in East 5 mph 6.8 mph 79% 0 in 0.00 W/m2 unknown
05:09 42.8 °F 37.4 °F 29.9 in ESE 4.3 mph 6.8 mph 80% 0 in 0.00 W/m2 unknown
05:14 42.8 °F 37.4 °F 29.9 in East 4.3 mph 6.8 mph 80% 0 in 0.00 W/m2 unknown
05:19 42.8 °F 37.4 °F 29.9 in East 5.6 mph 6.8 mph 80% 0 in 0.00 W/m2 unknown
05:24 42.8 °F 37.4 °F 29.9 in East 6.2 mph 6.8 mph 81% 0 in 0.00 W/m2 unknown
05:29 42.8 °F 37.4 °F 29.9 in East 5.6 mph 6.8 mph 81% 0 in 0.00 W/m2 unknown
05:34 42.8 °F 37.4 °F 29.9 in East 5 mph 6.8 mph 81% 0 in 0.00 W/m2 unknown
05:39 42.8 °F 37.4 °F 29.9 in ENE 5 mph 6.2 mph 81% 0 in 0.00 W/m2 unknown
05:44 42.8 °F 37.4 °F 29.9 in ENE 3.7 mph 6.2 mph 81% 0 in 0.00 W/m2 unknown
05:49 42.8 °F 37.4 °F 29.9 in ENE 3.7 mph 6.2 mph 81% 0 in 0.00 W/m2 unknown
05:54 42.8 °F 37.4 °F 29.9 in ENE 3.7 mph 6.2 mph 81% 0 in 0.00 W/m2 unknown
05:59 42.8 °F 37.4 °F 29.9 in East 5 mph 6.2 mph 80% 0 in 0.00 W/m2 unknown
06:04 42.8 °F 37.4 °F 29.9 in East 5 mph 6.2 mph 80% 0 in 0.00 W/m2 unknown
06:09 42.8 °F 37.4 °F 29.9 in East 4.3 mph 6.2 mph 80% 0 in 0.00 W/m2 unknown
06:14 42.8 °F 37.4 °F 29.9 in East 5 mph 6.2 mph 80% 0 in 0.00 W/m2 unknown
06:19 42.8 °F 37.4 °F 29.9 in ENE 5.6 mph 8.1 mph 80% 0 in 0.00 W/m2 unknown
06:24 42.8 °F 37.4 °F 29.9 in East 5.6 mph 8.1 mph 80% 0 in 0.00 W/m2 unknown
06:29 42.8 °F 35.6 °F 29.9 in East 5 mph 8.1 mph 80% 0 in 0.00 W/m2 unknown
06:34 42.8 °F 35.6 °F 30 in ESE 5 mph 6.2 mph 80% 0 in 0.00 W/m2 unknown
06:39 41 °F 35.6 °F 30 in South 4.3 mph 6.2 mph 82% 0 in 0.00 W/m2 unknown
06:44 41 °F 35.6 °F 30 in South 4.3 mph 5 mph 84% 0 in 0.00 W/m2 unknown
06:49 41 °F 35.6 °F 30 in SSE 3.1 mph 5 mph 85% 0 in 0.00 W/m2 unknown
06:54 41 °F 35.6 °F 30 in SSE 1.2 mph 5 mph 85% 0 in 0.00 W/m2 unknown
06:59 41 °F 37.4 °F 30 in SW 3.1 mph 3.7 mph 86% 0 in 7.00 W/m2 unknown
07:04 41 °F 35.6 °F 30 in WSW 3.7 mph 3.7 mph 87% 0 in 12.00 W/m2 unknown
07:09 39.2 °F 35.6 °F 30 in WSW 2.5 mph 3.7 mph 88% 0 in 16.00 W/m2 unknown
07:14 39.2 °F 35.6 °F 30 in WSW 1.9 mph 3.7 mph 89% 0 in 21.00 W/m2 unknown
07:19 39.2 °F 35.6 °F 30 in WSW 1.9 mph 3.7 mph 89% 0 in 25.00 W/m2 unknown
07:24 39.2 °F 35.6 °F 30 in SSW 1.9 mph 3.7 mph 89% 0 in 32.00 W/m2 unknown
07:29 39.2 °F 35.6 °F 30 in SSW 1.9 mph 2.5 mph 89% 0 in 35.00 W/m2 unknown
07:34 39.2 °F 37.4 °F 30 in SSW 1.2 mph 2.5 mph 89% 0 in 40.00 W/m2 unknown
07:39 39.2 °F 37.4 °F 30 in SSW 1.2 mph 1.9 mph 89% 0 in 47.00 W/m2 unknown
07:44 39.2 °F 37.4 °F 30 in SSW 1.2 mph 1.2 mph 89% 0 in 54.00 W/m2 unknown
07:49 39.2 °F 37.4 °F 30 in SW 0.6 mph 1.2 mph 89% 0 in 65.00 W/m2 unknown
07:54 39.2 °F 37.4 °F 30 in SW 1.2 mph 1.2 mph 89% 0 in 76.00 W/m2 unknown
07:59 39.2 °F 37.4 °F 30 in Calm   1.2 mph 89% 0 in 84.00 W/m2 unknown
08:04 41 °F 37.4 °F 30 in Calm     89% 0 in 86.00 W/m2 unknown
08:09 41 °F 37.4 °F 30 in Calm     88% 0 in 88.00 W/m2 unknown
08:14 41 °F 37.4 °F 30 in Calm     89% 0 in 114.00 W/m2 unknown
08:19 41 °F 37.4 °F 30 in Calm     89% 0 in 120.00 W/m2 unknown
08:24 41 °F 37.4 °F 30 in Calm     89% 0 in 135.00 W/m2 unknown
08:29 42.8 °F 39.2 °F 30 in Calm   1.2 mph 88% 0 in 146.00 W/m2 unknown
08:34 42.8 °F 39.2 °F 30 in ESE 1.9 mph 3.7 mph 86% 0 in 165.00 W/m2 unknown
08:39 42.8 °F 39.2 °F 30 in ESE 2.5 mph 3.7 mph 84% 0 in 185.00 W/m2 unknown
08:44 42.8 °F 39.2 °F 30 in ESE 3.7 mph 5.6 mph 84% 0 in 204.00 W/m2 unknown
08:49 44.6 °F 39.2 °F 30 in ESE 3.7 mph 6.2 mph 84% 0 in 218.00 W/m2 unknown
08:54 44.6 °F 39.2 °F 30 in ESE 3.1 mph 5 mph 84% 0 in 243.00 W/m2 unknown
08:59 44.6 °F 39.2 °F 30 in SE 3.1 mph 5 mph 84% 0 in 248.00 W/m2 unknown
09:04 44.6 °F 39.2 °F 30 in ESE 5.6 mph 6.8 mph 82% 0 in 255.00 W/m2 unknown
09:09 44.6 °F 39.2 °F 30 in ESE 6.2 mph 6.8 mph 81% 0 in 265.00 W/m2 unknown
09:14 44.6 °F 39.2 °F 30 in ESE 6.8 mph 9.3 mph 80% 0 in 276.00 W/m2 unknown
09:19 46.4 °F 39.2 °F 30 in East 6.8 mph 8.7 mph 80% 0 in 287.00 W/m2 unknown
09:24 46.4 °F 39.2 °F 30 in East 6.2 mph 8.1 mph 80% 0 in 301.00 W/m2 unknown
09:29 46.4 °F 41 °F 30 in East 5.6 mph 8.1 mph 80% 0 in 311.00 W/m2 unknown
09:34 46.4 °F 41 °F 30 in East 6.8 mph 9.3 mph 79% 0 in 323.00 W/m2 unknown
09:39 46.4 °F 41 °F 30 in East 7.5 mph 9.9 mph 79% 0 in 329.00 W/m2 unknown
09:44 46.4 °F 41 °F 30 in East 7.5 mph 10.6 mph 78% 0 in 338.00 W/m2 unknown
09:49 48.2 °F 41 °F 30 in East 6.2 mph 9.9 mph 78% 0 in 355.00 W/m2 unknown
09:54 48.2 °F 41 °F 30 in ESE 6.2 mph 8.1 mph 78% 0 in 360.00 W/m2 unknown
09:59 48.2 °F 41 °F 30 in ESE 6.8 mph 10.6 mph 78% 0 in 371.00 W/m2 unknown
10:04 48.2 °F 41 °F 30 in ESE 8.1 mph 11.2 mph 75% 0 in 392.00 W/m2 unknown
10:09 48.2 °F 41 °F 30 in East 8.1 mph 11.8 mph 75% 0 in 404.00 W/m2 unknown
10:14 50 °F 41 °F 30 in East 7.5 mph 11.8 mph 75% 0 in 422.00 W/m2 unknown
10:19 50 °F 41 °F 30 in ESE 9.9 mph 14.3 mph 71% 0 in 427.00 W/m2 unknown
10:24 50 °F 39.2 °F 30 in ESE 10.6 mph 14.3 mph 68% 0 in 443.00 W/m2 unknown
10:29 50 °F 39.2 °F 30 in East 8.7 mph 14.3 mph 67% 0 in 450.00 W/m2 unknown
10:34 50 °F 39.2 °F 30 in ENE 8.7 mph 11.8 mph 66% 0 in 466.00 W/m2 unknown
10:39 51.8 °F 39.2 °F 30 in ENE 9.3 mph 11.8 mph 63% 0 in 471.00 W/m2 unknown
10:44 51.8 °F 37.4 °F 30 in ESE 9.3 mph 13 mph 61% 0 in 485.00 W/m2 unknown
10:49 51.8 °F 37.4 °F 30 in East 8.7 mph 14.3 mph 60% 0 in 492.00 W/m2 unknown
10:54 51.8 °F 37.4 °F 30 in East 10.6 mph 14.9 mph 58% 0 in 503.00 W/m2 unknown
10:59 51.8 °F 37.4 °F 30 in East 12.4 mph 16.2 mph 57% 0 in 508.00 W/m2 unknown
11:04 51.8 °F 35.6 °F 30 in East 13 mph 16.8 mph 54% 0 in 519.00 W/m2 unknown
11:09 51.8 °F 35.6 °F 30 in East 10.6 mph 16.8 mph 55% 0 in 527.00 W/m2 unknown
11:14 51.8 °F 35.6 °F 30 in East 9.9 mph 14.3 mph 54% 0 in 527.00 W/m2 unknown
11:19 51.8 °F 35.6 °F 30 in ESE 8.7 mph 14.3 mph 53% 0 in 538.00 W/m2 unknown
11:24 51.8 °F 35.6 °F 30 in ESE 10.6 mph 14.3 mph 52% 0 in 541.00 W/m2 unknown
11:29 51.8 °F 35.6 °F 30 in ESE 12.4 mph 14.9 mph 51% 0 in 545.00 W/m2 unknown
11:34 53.6 °F 35.6 °F 30 in East 12.4 mph 18 mph 51% 0 in 554.00 W/m2 unknown
11:39 53.6 °F 35.6 °F 30 in East 12.4 mph 18.6 mph 50% 0 in 557.00 W/m2 unknown
11:44 53.6 °F 35.6 °F 30 in East 9.9 mph 18 mph 50% 0 in 564.00 W/m2 unknown
11:49 53.6 °F 35.6 °F 30 in East 11.2 mph 13 mph 49% 0 in 568.00 W/m2 unknown
11:54 53.6 °F 33.8 °F 30 in East 14.3 mph 18.6 mph 48% 0 in 570.00 W/m2 unknown
11:59 53.6 °F 33.8 °F 30 in East 13 mph 18 mph 46% 0 in 575.00 W/m2 unknown
12:04 53.6 °F 32 °F 30 in East 11.8 mph 16.8 mph 45% 0 in 582.00 W/m2 unknown
12:09 53.6 °F 32 °F 30 in East 13 mph 18 mph 43% 0 in 589.00 W/m2 unknown
12:14 53.6 °F 32 °F 30 in ESE 13.7 mph 18.6 mph 43% 0 in 589.00 W/m2 unknown
12:19 53.6 °F 32 °F 30 in ENE 12.4 mph 18 mph 43% 0 in 587.00 W/m2 unknown
12:24 53.6 °F 32 °F 30 in East 14.9 mph 19.9 mph 43% 0 in 589.00 W/m2 unknown
12:29 53.6 °F 32 °F 30 in ESE 15.5 mph 19.9 mph 42% 0 in 591.00 W/m2 unknown
12:34 53.6 °F 32 °F 30 in ESE 13 mph 19.9 mph 42% 0 in 591.00 W/m2 unknown
12:39 53.6 °F 32 °F 30 in ESE 16.2 mph 19.9 mph 42% 0 in 592.00 W/m2 unknown
12:44 55.4 °F 30.2 °F 30 in East 13 mph 19.9 mph 40% 0 in 589.00 W/m2 unknown
12:49 55.4 °F 30.2 °F 30 in East 13 mph 18.6 mph 40% 0 in 589.00 W/m2 unknown
12:54 55.4 °F 30.2 °F 30 in East 16.2 mph 18.6 mph 40% 0 in 587.00 W/m2 unknown
12:59 55.4 °F 30.2 °F 30 in East 14.9 mph 18.6 mph 37% 0 in 587.00 W/m2 unknown
13:04 55.4 °F 28.4 °F 30 in East 13 mph 18.6 mph 37% 0 in 587.00 W/m2 unknown
13:09 55.4 °F 28.4 °F 30 in East 12.4 mph 18 mph 37% 0 in 587.00 W/m2 unknown
13:14 55.4 °F 30.2 °F 30 in East 14.3 mph 18.6 mph 38% 0 in 577.00 W/m2 unknown
13:19 55.4 °F 28.4 °F 29.9 in East 14.3 mph 18 mph 37% 0 in 573.00 W/m2 unknown
13:24 55.4 °F 30.2 °F 29.9 in East 15.5 mph 21.7 mph 39% 0 in 573.00 W/m2 unknown
13:29 55.4 °F 32 °F 29.9 in ENE 11.2 mph 21.7 mph 39% 0 in 573.00 W/m2 unknown
13:34 55.4 °F 30.2 °F 29.9 in ENE 10.6 mph 18 mph 38% 0 in 564.00 W/m2 unknown
13:39 55.4 °F 32 °F 29.9 in East 11.2 mph 17.4 mph 39% 0 in 555.00 W/m2 unknown
13:44 55.4 °F 32 °F 29.9 in ESE 14.9 mph 19.9 mph 39% 0 in 552.00 W/m2 unknown
13:49 55.4 °F 30.2 °F 29.9 in East 14.9 mph 19.9 mph 38% 0 in 548.00 W/m2 unknown
13:54 55.4 °F 30.2 °F 29.9 in East 14.3 mph 18.6 mph 37% 0 in 550.00 W/m2 unknown
13:59 55.4 °F 30.2 °F 29.9 in East 14.3 mph 18.6 mph 38% 0 in 540.00 W/m2 unknown
14:04 55.4 °F 30.2 °F 29.9 in East 13 mph 16.8 mph 39% 0 in 533.00 W/m2 unknown
14:09 55.4 °F 32 °F 29.9 in East 13 mph 16.2 mph 40% 0 in 520.00 W/m2 unknown
14:14 55.4 °F 30.2 °F 29.9 in East 9.9 mph 16.2 mph 39% 0 in 520.00 W/m2 unknown
14:19 55.4 °F 32 °F 29.9 in East 11.2 mph 14.9 mph 40% 0 in 510.00 W/m2 unknown
14:24 55.4 °F 32 °F 29.9 in ESE 11.8 mph 16.2 mph 39% 0 in 497.00 W/m2 unknown
14:29 55.4 °F 30.2 °F 29.9 in ESE 10.6 mph 16.2 mph 39% 0 in 490.00 W/m2 unknown
14:34 55.4 °F 30.2 °F 29.9 in SE 11.2 mph 14.3 mph 39% 0 in 482.00 W/m2 unknown
14:39 55.4 °F 32 °F 29.9 in ESE 8.7 mph 14.3 mph 40% 0 in 473.00 W/m2 unknown
14:44 55.4 °F 32 °F 29.9 in ESE 10.6 mph 14.9 mph 40% 0 in 454.00 W/m2 unknown
14:49 55.4 °F 32 °F 29.9 in ESE 14.3 mph 18 mph 39% 0 in 446.00 W/m2 unknown
14:54 55.4 °F 32 °F 29.9 in East 14.3 mph 18.6 mph 39% 0 in 441.00 W/m2 unknown
14:59 55.4 °F 32 °F 29.9 in East 13.7 mph 18 mph 40% 0 in 424.00 W/m2 unknown
15:04 55.4 °F 32 °F 29.9 in ESE 10.6 mph 16.8 mph 40% 0 in 422.00 W/m2 unknown
15:09 55.4 °F 32 °F 29.9 in ESE 13.7 mph 18.6 mph 40% 0 in 410.00 W/m2 unknown
15:14 55.4 °F 32 °F 29.9 in East 11.8 mph 18 mph 40% 0 in 403.00 W/m2 unknown
15:19 55.4 °F 32 °F 29.9 in ESE 11.8 mph 16.2 mph 40% 0 in 387.00 W/m2 unknown
15:24 55.4 °F 32 °F 29.9 in ESE 11.8 mph 14.9 mph 41% 0 in 387.00 W/m2 unknown
15:29 55.4 °F 32 °F 29.9 in ESE 8.7 mph 14.3 mph 40% 0 in 380.00 W/m2 unknown
15:34 55.4 °F 32 °F 29.9 in ESE 10.6 mph 13 mph 40% 0 in 381.00 W/m2 unknown
15:39 55.4 °F 32 °F 29.9 in ESE 8.7 mph 13 mph 41% 0 in 366.00 W/m2 unknown
15:44 55.4 °F 33.8 °F 29.9 in East 8.1 mph 13 mph 43% 0 in 362.00 W/m2 unknown
15:49 55.4 °F 32 °F 29.9 in ESE 9.9 mph 13 mph 41% 0 in 371.00 W/m2 unknown
15:54 55.4 °F 32 °F 29.9 in ESE 10.6 mph 13 mph 42% 0 in 366.00 W/m2 unknown
15:59 55.4 °F 33.8 °F 29.9 in ESE 11.2 mph 14.3 mph 43% 0 in 360.00 W/m2 unknown
16:04 55.4 °F 32 °F 29.9 in ESE 11.2 mph 14.3 mph 42% 0 in 323.00 W/m2 unknown
16:09 55.4 °F 33.8 °F 29.9 in ESE 10.6 mph 14.3 mph 43% 0 in 292.00 W/m2 unknown
16:14 55.4 °F 33.8 °F 29.9 in East 11.2 mph 14.3 mph 44% 0 in 258.00 W/m2 unknown
16:19 55.4 °F 33.8 °F 29.9 in ESE 8.7 mph 11.8 mph 44% 0 in 216.00 W/m2 unknown
16:24 55.4 °F 33.8 °F 29.9 in ESE 8.7 mph 11.8 mph 44% 0 in 211.00 W/m2 unknown
16:29 55.4 °F 33.8 °F 29.9 in ESE 8.7 mph 10.6 mph 45% 0 in 211.00 W/m2 unknown
16:34 55.4 °F 33.8 °F 29.9 in ESE 8.7 mph 11.8 mph 45% 0 in 199.00 W/m2 unknown
16:39 55.4 °F 33.8 °F 29.9 in East 8.7 mph 11.8 mph 44% 0 in 183.00 W/m2 unknown
16:44 55.4 °F 33.8 °F 29.9 in East 8.1 mph 11.8 mph 44% 0 in 169.00 W/m2 unknown
16:49 55.4 °F 33.8 °F 29.9 in East 10.6 mph 14.3 mph 44% 0 in 155.00 W/m2 unknown
16:54 55.4 °F 32 °F 29.9 in East 12.4 mph 16.2 mph 43% 0 in 93.00 W/m2 unknown
16:59 53.6 °F 32 °F 29.9 in East 8.7 mph 16.2 mph 43% 0 in 67.00 W/m2 unknown
17:04 53.6 °F 32 °F 29.9 in East 6.2 mph 11.8 mph 44% 0 in 63.00 W/m2 unknown
17:09 53.6 °F 32 °F 29.9 in East 5.6 mph 9.9 mph 44% 0 in 67.00 W/m2 unknown
17:14 53.6 °F 32 °F 29.9 in East 5.6 mph 8.1 mph 44% 0 in 67.00 W/m2 unknown
17:19 53.6 °F 32 °F 29.9 in East 8.7 mph 11.2 mph 45% 0 in 58.00 W/m2 unknown
17:24 53.6 °F 32 °F 29.9 in East 8.7 mph 13 mph 45% 0 in 54.00 W/m2 unknown
17:29 51.8 °F 32 °F 29.9 in ENE 8.1 mph 13 mph 45% 0 in 51.00 W/m2 unknown
17:34 51.8 °F 32 °F 29.9 in East 9.9 mph 14.9 mph 45% 0 in 42.00 W/m2 unknown
17:39 51.8 °F 32 °F 29.9 in ENE 10.6 mph 14.9 mph 45% 0 in 35.00 W/m2 unknown
17:44 51.8 °F 32 °F 29.9 in ENE 9.9 mph 16.2 mph 46% 0 in 26.00 W/m2 unknown
17:49 51.8 °F 32 °F 29.9 in ENE 9.9 mph 16.2 mph 45% 0 in 19.00 W/m2 unknown
17:54 51.8 °F 30.2 °F 29.9 in ENE 8.7 mph 14.3 mph 45% 0 in 14.00 W/m2 unknown
17:59 51.8 °F 30.2 °F 29.9 in ENE 8.7 mph 11.8 mph 45% 0 in 11.00 W/m2 unknown
18:04 51.8 °F 30.2 °F 29.9 in East 8.1 mph 11.8 mph 45% 0 in 7.00 W/m2 unknown
18:09 50 °F 30.2 °F 29.9 in ENE 7.5 mph 10.6 mph 46% 0 in 0.00 W/m2 unknown
18:14 50 °F 30.2 °F 29.9 in ENE 6.8 mph 9.9 mph 46% 0 in 0.00 W/m2 unknown
18:19 50 °F 30.2 °F 30 in ENE 8.1 mph 9.9 mph 47% 0 in 0.00 W/m2 unknown
18:24 50 °F 30.2 °F 30 in ENE 8.1 mph 11.8 mph 48% 0 in 0.00 W/m2 unknown
18:29 50 °F 30.2 °F 30 in ENE 6.8 mph 11.8 mph 48% 0 in 0.00 W/m2 unknown
18:34 50 °F 30.2 °F 30 in East 7.5 mph 11.2 mph 48% 0 in 0.00 W/m2 unknown
18:39 48.2 °F 30.2 °F 30 in East 8.1 mph 13 mph 47% 0 in 0.00 W/m2 unknown
18:44 48.2 °F 28.4 °F 30 in East 8.1 mph 13 mph 46% 0 in 0.00 W/m2 unknown
18:49 48.2 °F 28.4 °F 30 in ENE 7.5 mph 10.6 mph 44% 0 in 0.00 W/m2 unknown
18:54 48.2 °F 28.4 °F 30 in ENE 6.8 mph 10.6 mph 44% 0 in 0.00 W/m2 unknown
18:59 48.2 °F 28.4 °F 30 in ENE 6.8 mph 10.6 mph 44% 0 in 0.00 W/m2 unknown
19:04 48.2 °F 28.4 °F 30 in ENE 7.5 mph 9.9 mph 44% 0 in 0.00 W/m2 unknown
19:09 48.2 °F 26.6 °F 30 in ENE 7.5 mph 10.6 mph 44% 0 in 0.00 W/m2 unknown
19:14 48.2 °F 26.6 °F 30 in ENE 6.2 mph 9.9 mph 43% 0 in 0.00 W/m2 unknown
19:19 48.2 °F 26.6 °F 30 in East 6.2 mph 8.1 mph 44% 0 in 0.00 W/m2 unknown
19:24 48.2 °F 26.6 °F 30 in East 6.2 mph 8.1 mph 44% 0 in 0.00 W/m2 unknown
19:29 48.2 °F 26.6 °F 30 in ENE 6.2 mph 8.1 mph 44% 0 in 0.00 W/m2 unknown
19:34 48.2 °F 26.6 °F 30 in ENE 5 mph 8.1 mph 44% 0 in 0.00 W/m2 unknown
19:39 48.2 °F 26.6 °F 30 in East 5 mph 8.1 mph 44% 0 in 0.00 W/m2 unknown
19:44 46.4 °F 26.6 °F 30 in East 5 mph 8.1 mph 44% 0 in 0.00 W/m2 unknown
19:49 46.4 °F 26.6 °F 30 in East 6.8 mph 9.9 mph 44% 0 in 0.00 W/m2 unknown
19:54 46.4 °F 26.6 °F 30 in East 7.5 mph 10.6 mph 44% 0 in 0.00 W/m2 unknown
19:59 46.4 °F 26.6 °F 30 in East 7.5 mph 10.6 mph 44% 0 in 0.00 W/m2 unknown
20:04 46.4 °F 26.6 °F 30 in East 7.5 mph 9.9 mph 45% 0 in 0.00 W/m2 unknown
20:09 46.4 °F 26.6 °F 30 in East 6.8 mph 8.7 mph 46% 0 in 0.00 W/m2 unknown
20:14 46.4 °F 26.6 °F 30 in East 6.8 mph 9.3 mph 48% 0 in 0.00 W/m2 unknown
20:19 46.4 °F 28.4 °F 30 in East 6.8 mph 8.7 mph 49% 0 in 0.00 W/m2 unknown
20:24 46.4 °F 28.4 °F 30 in East 6.2 mph 8.1 mph 51% 0 in 0.00 W/m2 unknown
20:29 46.4 °F 28.4 °F 30 in East 5 mph 8.1 mph 52% 0 in 0.00 W/m2 unknown
20:34 46.4 °F 28.4 °F 30 in East 5.6 mph 6.8 mph 52% 0 in 0.00 W/m2 unknown
20:39 46.4 °F 30.2 °F 30 in East 5 mph 6.2 mph 54% 0 in 0.00 W/m2 unknown
20:44 44.6 °F 30.2 °F 30 in East 3.7 mph 6.2 mph 55% 0 in 0.00 W/m2 unknown
20:49 44.6 °F 30.2 °F 30 in East 3.1 mph 5 mph 56% 0 in 0.00 W/m2 unknown
20:54 44.6 °F 30.2 °F 30 in East 3.1 mph 5 mph 56% 0 in 0.00 W/m2 unknown
20:59 44.6 °F 30.2 °F 30 in ENE 2.5 mph 3.7 mph 57% 0 in 0.00 W/m2 unknown
21:04 44.6 °F 30.2 °F 30 in ENE 3.7 mph 3.7 mph 58% 0 in 0.00 W/m2 unknown
21:09 44.6 °F 30.2 °F 30 in ENE 4.3 mph 5 mph 59% 0 in 0.00 W/m2 unknown
21:14 44.6 °F 30.2 °F 30 in ENE 5 mph 6.8 mph 59% 0 in 0.00 W/m2 unknown
21:19 44.6 °F 30.2 °F 30 in ENE 5 mph 6.8 mph 60% 0 in 0.00 W/m2 unknown
21:24 44.6 °F 30.2 °F 30 in ENE 6.2 mph 8.1 mph 60% 0 in 0.00 W/m2 unknown
21:29 42.8 °F 30.2 °F 30 in ENE 6.2 mph 8.1 mph 60% 0 in 0.00 W/m2 unknown
21:34 42.8 °F 30.2 °F 30 in ENE 6.2 mph 8.1 mph 60% 0 in 0.00 W/m2 unknown
21:39 42.8 °F 28.4 °F 30 in ENE 6.2 mph 9.3 mph 60% 0 in 0.00 W/m2 unknown
21:44 42.8 °F 28.4 °F 30 in East 5 mph 8.7 mph 60% 0 in 0.00 W/m2 unknown
21:49 42.8 °F 28.4 °F 30 in East 3.1 mph 6.8 mph 60% 0 in 0.00 W/m2 unknown
21:54 42.8 °F 30.2 °F 30 in East 2.5 mph 5 mph 61% 0 in 0.00 W/m2 unknown
21:59 42.8 °F 30.2 °F 30 in East 1.2 mph 3.1 mph 61% 0 in 0.00 W/m2 unknown
22:04 41 °F 30.2 °F 30 in ENE 5 mph 6.2 mph 62% 0 in 0.00 W/m2 unknown
22:09 41 °F 30.2 °F 30 in NE 7.5 mph 9.3 mph 62% 0 in 0.00 W/m2 unknown
22:14 41 °F 28.4 °F 30 in NE 6.2 mph 8.7 mph 62% 0 in 0.00 W/m2 unknown
22:19 41 °F 28.4 °F 30 in NE 3.7 mph 6.2 mph 62% 0 in 0.00 W/m2 unknown
22:24 41 °F 28.4 °F 30 in ENE 4.3 mph 6.8 mph 62% 0 in 0.00 W/m2 unknown
22:29 41 °F 30.2 °F 30 in ENE 5 mph 6.8 mph 62% 0 in 0.00 W/m2 unknown
22:34 41 °F 30.2 °F 30 in ENE 3.1 mph 6.8 mph 62% 0 in 0.00 W/m2 unknown
22:39 41 °F 30.2 °F 30 in ENE 3.1 mph 5 mph 62% 0 in 0.00 W/m2 unknown
22:44 41 °F 30.2 °F 30 in ENE 3.1 mph 5 mph 62% 0 in 0.00 W/m2 unknown
22:49 41 °F 30.2 °F 30 in ENE 3.7 mph 5 mph 63% 0 in 0.00 W/m2 unknown
22:54 41 °F 30.2 °F 30 in ENE 5 mph 8.1 mph 63% 0 in 0.00 W/m2 unknown
22:59 41 °F 30.2 °F 30 in ENE 5 mph 8.1 mph 64% 0 in 0.00 W/m2 unknown
23:04 41 °F 30.2 °F 30 in ENE 5.6 mph 8.1 mph 65% 0 in 0.00 W/m2 unknown
23:09 41 °F 30.2 °F 30 in ENE 5 mph 8.1 mph 65% 0 in 0.00 W/m2 unknown
23:14 41 °F 30.2 °F 30 in ENE 5.6 mph 6.8 mph 66% 0 in 0.00 W/m2 unknown
23:19 41 °F 30.2 °F 30 in ENE 6.2 mph 6.8 mph 66% 0 in 0.00 W/m2 unknown
23:24 41 °F 30.2 °F 30 in ENE 5.6 mph 8.1 mph 67% 0 in 0.00 W/m2 unknown
23:29 41 °F 30.2 °F 30 in ENE 5 mph 8.1 mph 67% 0 in 0.00 W/m2 unknown
23:34 41 °F 30.2 °F 30 in ENE 5.6 mph 8.1 mph 67% 0 in 0.00 W/m2 unknown
23:39 41 °F 30.2 °F 30 in ENE 6.2 mph 8.1 mph 67% 0 in 0.00 W/m2 unknown
23:44 41 °F 30.2 °F 30 in ENE 5.6 mph 6.8 mph 68% 0 in 0.00 W/m2 unknown
23:49 41 °F 30.2 °F 30 in ENE 5.6 mph 8.1 mph 68% 0 in 0.00 W/m2 unknown
23:54 41 °F 30.2 °F 30 in ENE 5.6 mph 8.1 mph 68% 0 in 0.00 W/m2 unknown
23:59 41 °F 30.2 °F 30 in ENE 5.6 mph 8.1 mph 68% 0 in 0.00 W/m2 unknown
Stazione Meteorologica MeteoMincio Rivalta s/M (MN)
Con i complimenti di Weather Underground - 4 mb



GLOSSARIO METEOROLOGICO
Umidità Relativa
E' definita come il rapporto tra la pressione di vapore effettiva (e) e la pressione di vapore saturo (es), normalmente espresso in percento. E' la proprietà del vapore acqueo più frequentemente osservata, e può essere utilizzata per ricavare le altre variabili. Viene espressa in %. Questo rapporto viene chiamato anche stato igrometrico dell'aria. Valori inferiori al 30% denotano la presenza di aria secca o poco umida, mentre valori superiori al 70-80% sono indice di una notevole umidità (ad esempio in caso di pioggia o di nebbia).
Share

Non seguire questo link o sarai bannato dal sito!